BMCB-35 Weather Reports


time (UTC)temp
F
wind
direction
speed
knots
gust
knots
rain 1hr
in
rain 24hr
in
rain mn
in
humidity
%
barometer
mb
20260504151015 61 85 0.9 3.5 0.00 0.00 0.00 67 1013.4
20260504141010 61 87 1.7 3.5 0.00 0.00 0.00 70 1013.8
20260504141008 61 87 1.7 3.5 0.00 0.00 0.00 69 1013.9
20260504081027 57 69 1.7 4.3 0.00 0.00 0.00 72 1014.8
20260504081020 57 69 1.7 4.3 0.00 0.00 0.00 73 1014.9
20260504045029 46 187 0.0 0.0 0.00 0.00 0.00 94 1014.7
20260504044033 46 173 0.0 0.0 0.00 0.00 0.00 95 1014.7
20260504043031 46 212 0.0 0.0 0.00 0.00 0.00 95 1014.7
20260504041003 46 220 0.0 0.0 0.00 0.00 0.00 96 1014.7
20260504040034 46 220 0.0 0.0 0.00 0.00 0.00 96 1014.8
20260504035004 46 169 0.0 0.0 0.00 0.00 0.00 96 1014.8
20260504033004 46 309 0.0 0.0 0.00 0.00 0.00 97 1014.8
20260504032011 46 204 0.0 0.0 0.00 0.00 0.00 96 1014.9
20260504031008 46 204 0.0 0.0 0.00 0.00 0.00 96 1014.8
20260504030009 46 220 0.0 0.0 0.00 0.00 0.00 96 1014.8
20260504025008 46 198 0.0 0.0 0.00 0.00 0.00 95 1014.8
20260504024004 46 194 0.0 0.0 0.00 0.00 0.00 95 1014.7
20260504023030 46 194 0.0 0.0 0.00 0.00 0.00 94 1014.7
20260504021010 47 124 0.0 0.9 0.00 0.00 0.00 94 1014.6
20260504015022 47 146 0.0 0.0 0.00 0.00 0.00 93 1014.8
20260504014031 47 243 0.0 0.0 0.00 0.00 0.00 93 1014.8
20260504013003 47 208 0.0 0.0 0.00 0.00 0.00 92 1014.7
20260504012014 47 325 0.0 0.0 0.00 0.00 0.00 92 1014.8
20260504011008 48 190 0.0 0.0 0.00 0.00 0.00 92 1014.8
20260504010033 48 190 0.0 0.0 0.00 0.00 0.00 92 1014.8
20260504005032 48 234 0.0 0.0 0.00 0.00 0.00 92 1014.8
20260504004012 48 241 0.0 0.9 0.00 0.00 0.00 92 1014.7
20260504003031 48 241 0.0 0.9 0.00 0.00 0.00 92 1014.6
20260504002036 48 194 0.0 0.0 0.00 0.00 0.00 92 1014.6
20260504001036 48 234 0.0 0.0 0.00 0.00 0.00 91 1014.6
20260503235041 49 176 0.0 0.0 0.00 0.00 0.00 89 1014.6
20260503234010 49 184 0.0 0.0 0.00 0.00 0.00 89 1014.5
20260503233011 49 185 0.0 0.0 0.00 0.00 0.00 89 1014.5
20260503232039 49 185 0.0 0.0 0.00 0.00 0.00 88 1014.5
20260503231037 49 210 0.0 0.0 0.00 0.00 0.00 88 1014.5
20260503230016 50 218 0.0 0.0 0.00 0.00 0.00 88 1014.5
20260503224008 50 280 0.0 0.0 0.00 0.00 0.00 87 1014.6
20260503223033 51 280 0.0 0.0 0.00 0.00 0.00 86 1014.5
20260503222010 51 191 0.0 1.7 0.00 0.00 0.00 85 1014.5
20260503221024 51 191 0.0 1.7 0.00 0.00 0.00 85 1014.5
20260503220032 51 195 0.0 0.9 0.00 0.00 0.00 84 1014.4
20260503215043 52 208 0.0 0.0 0.00 0.00 0.00 82 1014.4
20260503211004 53 255 0.0 0.9 0.00 0.00 0.00 79 1014.2
20260503210009 53 181 0.0 0.9 0.00 0.00 0.00 80 1014.3
20260503205016 53 181 0.0 0.9 0.00 0.00 0.00 80 1014.3
20260503204010 53 167 0.0 0.0 0.00 0.00 0.00 81 1014.3
20260503203042 53 167 0.0 0.0 0.00 0.00 0.00 81 1014.3
20260503202035 53 266 0.0 0.0 0.00 0.00 0.00 80 1014.2
20260503200036 54 192 0.0 0.0 0.00 0.00 0.00 78 1014.2
20260503195009 55 192 0.0 0.0 0.00 0.00 0.00 77 1014.2
20260503194015 55 192 0.0 0.0 0.00 0.00 0.00 76 1014.1
20260503193014 56 175 0.0 0.9 0.00 0.00 0.00 75 1014.1
20260503192040 56 175 0.0 0.9 0.00 0.00 0.00 75 1014.0
20260503191010 57 183 0.0 0.0 0.00 0.00 0.00 74 1013.9
20260503190041 58 183 0.0 0.0 0.00 0.00 0.00 73 1013.8
20260503185041 59 182 0.0 0.0 0.00 0.00 0.00 71 1013.7
20260503184010 61 179 0.0 0.0 0.00 0.00 0.00 63 1013.4
20260503182038 62 227 0.9 1.7 0.00 0.00 0.00 59 1013.3
20260503181041 62 350 0.9 2.6 0.00 0.00 0.00 58 1013.2
20260503180029 62 66 0.9 3.5 0.00 0.00 0.00 57 1013.1
20260503175010 62 75 0.9 3.5 0.00 0.00 0.00 58 1013.2
20260503174009 62 352 0.9 2.6 0.00 0.00 0.00 57 1013.3
20260503173004 62 7 0.9 2.6 0.00 0.00 0.00 57 1013.3
20260503172024 62 7 0.9 2.6 0.00 0.00 0.00 58 1013.4